Starlink 31203

operational
NORAD ID: 58869 Int'l Des: 2024-019 Owner: SPXS Country: US Constellation: starlink
LEOCIRCULAR

关于 Starlink 31203

正在加载描述...

实时位置

正在加载3D地球...

即将过境

高度历史

Altitude vs Time

uPlot chart will show altitude changes over time

两行轨道根数

1 58869U 24019S 25353.26139977 .00010521 00000-0 39119-3 0 9999
2 58869 43.0033 339.5074 0001343 276.4242 83.6456 15.27588425106826
Epoch: Dec 19, 2025 • Age: 12 hours

当前状态

高度 484.1 km
速度 7.62 km/s
星下点 -8.00°S, 165.35°E
发射日期 Jan 29, 2024
运行时间 1.8 years
类型 internet

技术详情

分类 Payload
质量 730.00 kg
干质量 700.00 kg
总质量 730.00 kg
长度 0.30 m
直径 4.10 m
跨度 29.00 m
形状 Box + pan
制造商 SPXS
平台类型 Starlink V2M
阶段状态 In Orbit
所有者/国家 SPXS/US

大型星座

Loading constellations...